Meteo pe oră la Dziadkowo

Astăzi, 3 Martie, Miercuri

Timp Temperatura Precipitaţii Vânt Presiune Umiditate
00:00 +3°C° 0 mm 0 m/s 764 mmHg 86%
01:00 +2°C° 0 mm 0 m/s 764 mmHg 87%
02:00 +2°C° 0 mm 0 m/s 764 mmHg 87%
03:00 +3°C° 0 mm 1 m/s 763 mmHg 87%
04:00 +3°C° 0 mm 1 m/s 763 mmHg 87%
05:00 +3°C° 0 mm 1 m/s 763 mmHg 87%
06:00 +3°C° 0 mm 1 m/s 763 mmHg 87%
07:00 +3°C° 0 mm 1 m/s 762 mmHg 88%
08:00 +4°C° 0 mm 1 m/s 762 mmHg 81%
09:00 +5°C° 0 mm 2 m/s 762 mmHg 75%
10:00 +7°C° 0 mm 2 m/s 762 mmHg 68%
11:00 +8°C° 0 mm 2 m/s 761 mmHg 65%
12:00 +9°C° 0 mm 2 m/s 761 mmHg 61%
13:00 +11°C° 0 mm 3 m/s 760 mmHg 57%
14:00 +11°C° 0 mm 3 m/s 759 mmHg 59%
15:00 +11°C° 0 mm 3 m/s 759 mmHg 60%
16:00 +11°C° 0 mm 3 m/s 758 mmHg 61%
17:00 +9°C° 0 mm 3 m/s 758 mmHg 66%
18:00 +8°C° 0 mm 3 m/s 757 mmHg 70%
19:00 +5°C° 0 mm 3 m/s 757 mmHg 75%
20:00 +5°C° 0 mm 3 m/s 756 mmHg 78%
21:00 +4°C° 0 mm 3 m/s 755 mmHg 82%
22:00 +4°C° 0 mm 3 m/s 755 mmHg 85%
23:00 +4°C° 0 mm 4 m/s 754 mmHg 87%

Mâine, 4 Martie, Joi

Timp Temperatura Precipitaţii Vânt Presiune Umiditate
00:00 +4°C° 0 mm 4 m/s 754 mmHg 88%
01:00 +4°C° 0 mm 4 m/s 754 mmHg 90%
02:00 +4°C° 0 mm 4 m/s 753 mmHg 91%
03:00 +5°C° 0 mm 5 m/s 752 mmHg 92%
04:00 +5°C° 0 mm 5 m/s 752 mmHg 93%
05:00 +3°C° 0 mm 5 m/s 751 mmHg 93%
06:00 +3°C° 0 mm 5 m/s 751 mmHg 93%
07:00 +2°C° 0 mm 5 m/s 751 mmHg 93%
08:00 +2°C° 0 mm 5 m/s 751 mmHg 91%
09:00 +2°C° 0 mm 6 m/s 751 mmHg 89%
10:00 +2°C° 0 mm 6 m/s 751 mmHg 87%
11:00 +2°C° 0 mm 5 m/s 751 mmHg 85%
12:00 +1°C° 0 mm 5 m/s 751 mmHg 83%
13:00 +1°C° 0 mm 5 m/s 751 mmHg 81%
14:00 +1°C° 0 mm 5 m/s 750 mmHg 80%
15:00 +1°C° 0 mm 5 m/s 750 mmHg 79%
16:00 +1°C° 0 mm 4 m/s 750 mmHg 79%
17:00 +1°C° 0 mm 4 m/s 750 mmHg 83%
18:00 0°C° 0 mm 4 m/s 751 mmHg 87%
19:00 +1°C° 0 mm 3 m/s 751 mmHg 91%
20:00 -1°C° 0.1 mm 4 m/s 751 mmHg 89%
21:00 -1°C° 0.1 mm 4 m/s 751 mmHg 88%
22:00 -2°C° 0.1 mm 4 m/s 752 mmHg 86%
23:00 -2°C° 0 mm 4 m/s 752 mmHg 86%

Poimâine, 5 Martie, Vineri

Timp Temperatura Precipitaţii Vânt Presiune Umiditate
00:00 -3°C° 0 mm 4 m/s 752 mmHg 86%
01:00 -3°C° 0 mm 4 m/s 753 mmHg 86%
02:00 -4°C° 0 mm 3 m/s 753 mmHg 85%
03:00 -4°C° 0 mm 3 m/s 753 mmHg 85%
04:00 -4°C° 0 mm 3 m/s 753 mmHg 85%
05:00 -4°C° 0 mm 3 m/s 754 mmHg 83%
06:00 -4°C° 0 mm 3 m/s 754 mmHg 82%
07:00 -4°C° 0 mm 3 m/s 755 mmHg 80%
08:00 -2°C° 0 mm 3 m/s 755 mmHg 71%
09:00 -1°C° 0 mm 4 m/s 755 mmHg 62%
10:00 0°C° 0 mm 4 m/s 756 mmHg 53%
11:00 +1°C° 0 mm 4 m/s 756 mmHg 49%
12:00 +1°C° 0 mm 4 m/s 756 mmHg 44%
13:00 +3°C° 0 mm 4 m/s 756 mmHg 40%
14:00 +3°C° 0.1 mm 4 m/s 756 mmHg 42%
15:00 +1°C° 0.1 mm 4 m/s 756 mmHg 44%
16:00 +1°C° 0.1 mm 5 m/s 756 mmHg 46%
17:00 0°C° 0.1 mm 4 m/s 757 mmHg 53%
18:00 -1°C° 0.1 mm 4 m/s 758 mmHg 59%
19:00 -3°C° 0.1 mm 4 m/s 758 mmHg 65%
20:00 -3°C° 0 mm 4 m/s 759 mmHg 69%
21:00 -3°C° 0 mm 4 m/s 759 mmHg 73%
22:00 -4°C° 0 mm 4 m/s 760 mmHg 77%
23:00 -4°C° 0 mm 4 m/s 760 mmHg 78%

6 Martie, Sâmbătă

Timp Temperatura Precipitaţii Vânt Presiune Umiditate
00:00 -4°C° 0 mm 3 m/s 761 mmHg 78%
01:00 -4°C° 0 mm 3 m/s 761 mmHg 78%
02:00 -4°C° 0 mm 3 m/s 762 mmHg 77%
03:00 -3°C° 0 mm 2 m/s 762 mmHg 76%
04:00 -3°C° 0 mm 2 m/s 762 mmHg 74%
05:00 -3°C° 0 mm 2 m/s 762 mmHg 73%
06:00 -3°C° 0 mm 2 m/s 763 mmHg 71%
07:00 -3°C° 0 mm 2 m/s 763 mmHg 69%
08:00 -2°C° 0 mm 2 m/s 763 mmHg 63%
09:00 0°C° 0 mm 3 m/s 763 mmHg 56%
10:00 +1°C° 0 mm 3 m/s 764 mmHg 50%
11:00 0°C° 0 mm 4 m/s 763 mmHg 47%
12:00 +1°C° 0 mm 4 m/s 763 mmHg 43%
13:00 +2°C° 0 mm 5 m/s 763 mmHg 40%
14:00 +1°C° 0 mm 5 m/s 763 mmHg 41%
15:00 +1°C° 0 mm 5 m/s 762 mmHg 42%
16:00 +1°C° 0 mm 5 m/s 762 mmHg 43%
17:00 0°C° 0 mm 5 m/s 762 mmHg 47%
18:00 -1°C° 0 mm 4 m/s 761 mmHg 51%
19:00 -2°C° 0 mm 4 m/s 761 mmHg 55%
20:00 -2°C° 0 mm 4 m/s 761 mmHg 54%
21:00 -2°C° 0 mm 5 m/s 761 mmHg 52%
22:00 -2°C° 0 mm 5 m/s 760 mmHg 51%
23:00 -3°C° 0 mm 6 m/s 760 mmHg 51%

7 Martie, Duminică

Timp Temperatura Precipitaţii Vânt Presiune Umiditate
00:00 -3°C° 0 mm 6 m/s 760 mmHg 52%
01:00 -4°C° 0 mm 6 m/s 759 mmHg 52%
02:00 -4°C° 0 mm 6 m/s 758 mmHg 55%
03:00 -4°C° 0 mm 6 m/s 758 mmHg 58%
04:00 -4°C° 0 mm 6 m/s 757 mmHg 61%
05:00 -4°C° 0 mm 6 m/s 757 mmHg 65%
06:00 -4°C° 0 mm 6 m/s 757 mmHg 69%
07:00 -4°C° 0 mm 6 m/s 757 mmHg 73%
08:00 -3°C° 0 mm 7 m/s 757 mmHg 74%
09:00 -3°C° 0 mm 7 m/s 756 mmHg 74%
10:00 -3°C° 0 mm 7 m/s 756 mmHg 75%
11:00 -2°C° 0 mm 7 m/s 756 mmHg 73%
12:00 -2°C° 0 mm 7 m/s 756 mmHg 71%
13:00 -2°C° 0 mm 7 m/s 755 mmHg 69%
14:00 -1°C° 0 mm 7 m/s 755 mmHg 68%
15:00 -1°C° 0 mm 7 m/s 754 mmHg 68%
16:00 -1°C° 0 mm 7 m/s 754 mmHg 67%
17:00 -1°C° 0 mm 6 m/s 754 mmHg 69%
18:00 -1°C° 0 mm 5 m/s 753 mmHg 71%
19:00 -1°C° 0 mm 5 m/s 753 mmHg 73%
20:00 -1°C° 0 mm 5 m/s 753 mmHg 73%
21:00 -2°C° 0 mm 5 m/s 753 mmHg 74%
22:00 -2°C° 0 mm 5 m/s 753 mmHg 75%
23:00 -2°C° 0 mm 5 m/s 752 mmHg 76%

8 Martie, Luni

Timp Temperatura Precipitaţii Vânt Presiune Umiditate
00:00 -2°C° 0 mm 5 m/s 752 mmHg 77%
01:00 -2°C° 0 mm 5 m/s 751 mmHg 79%
02:00 -4°C° 0 mm 5 m/s 751 mmHg 81%
03:00 -4°C° 0 mm 5 m/s 751 mmHg 84%
04:00 -4°C° 0 mm 5 m/s 751 mmHg 87%
05:00 -4°C° 0.1 mm 5 m/s 751 mmHg 90%
06:00 -4°C° 0.1 mm 5 m/s 751 mmHg 92%
07:00 -2°C° 0.1 mm 5 m/s 752 mmHg 95%
08:00 -2°C° 0.2 mm 5 m/s 752 mmHg 85%
09:00 -1°C° 0.2 mm 4 m/s 753 mmHg 76%
10:00 -1°C° 0.2 mm 4 m/s 753 mmHg 66%
11:00 0°C° 0 mm 4 m/s 753 mmHg 61%
12:00 +2°C° 0 mm 3 m/s 754 mmHg 56%
13:00 +2°C° 0 mm 3 m/s 754 mmHg 50%
14:00 +2°C° 0 mm 3 m/s 754 mmHg 55%
15:00 0°C° 0 mm 4 m/s 754 mmHg 60%
16:00 0°C° 0 mm 4 m/s 755 mmHg 64%
17:00 -1°C° 0 mm 4 m/s 755 mmHg 68%
18:00 -3°C° 0 mm 4 m/s 756 mmHg 72%
19:00 -4°C° 0 mm 4 m/s 756 mmHg 76%
20:00 -5°C° 0 mm 4 m/s 757 mmHg 76%
21:00 -5°C° 0 mm 4 m/s 758 mmHg 77%
22:00 -7°C° 0 mm 4 m/s 758 mmHg 77%
23:00 -7°C° 0 mm 4 m/s 758 mmHg 77%
Arată mai mult

Formular de consimțământ

Meteoprog și furnizorii noștri de servicii pot stoca și accesa date personale, precum cookies, identificatori de dispozitiv sau alte tehnologii similare pe dispozitivul dumneavoastră și procesa astfel de date pentru a personaliza conținutul și reclamele, dar și pentru a oferi caracteristici de social media și pentru a analiza traficul.

  • Stocarea și/sau accesarea informațiilor pe dispozitivul dumneavoastră

    Cookies, identificatori de dispozitiv sau alte informații pot fi stocate sau accesate pe dispozitiv în scopurile indicate mai sus.

  • Reclame și conținut personalizat, evaluarea reclamelor și a conținutului, informații despre audiențe și dezvoltarea produselor

    Reclamele și conținutul pot fi personalizate pe baza unui profil. Pot fi adăugate date suplimentare pentru a personaliza mai bine reclamele și conținutul. Performanța reclamelor și conținutului poate fi măsurată. Pot fi obținute informații despre utilizatorii care au văzut reclamele și conținutul. Aceste date pot fi utilizate pentru a dezvolta sau îmbunătăți experiența utilizatorilor, sistemele și software-ul.

Dând clic pe ‘Sunt de acord’, permiteți utilizarea cookie-urilor menționate, a identificatorilor de dispozitiv, balizelor web sau altor tehnologii similare. Setările pot fi modificate din browser-ul dispozitivului dumneavoastră.

În anumite scopuri, interesele legitime pot prima asupra consimțământului. Puteți citi mai multe informații în acest sens în Politica privind Confidențialitatea Datelor și Cookie.